Flag for Germany Weather past 2 weeks in Oranienburg, Brandenburg, Germany

Now
64 °F

Scattered clouds.


Feels Like: 64 °F
Forecast: 53 / 66 °F
Wind: 6 mph from Northwest

Location: Berlin-Tegel

Current Time: Jul 30, 2015 at 8:25:45 PM

Latest Report: Jul 30, 2015 at 8:00 PM


Visibility: 13 mi

Pressure: 29.89 "Hg

Humidity: 53%

Dew point: 47 °F

Location of OranienburgLocation

Historic Weather in Oranienburg — Graph

°F

Oranienburg temperature yesterday

Maximum temperature yesterday: 69 °F (at 5:00 PM)
Minimum temperature yesterday: 57 °F (at 6:00 AM)
Average temperature yesterday: 62 °F

Past Weeks' High & Low Weather Summary

 TemperatureHumidityPressure
High90 °F (Jul 17, 6:00 PM)97% (Jul 19, 1:00 PM)30.08 "Hg (Jul 19, 1:00 PM)
Low56 °F (Jul 26, 2:00 AM)30% (Jul 25, 6:00 PM)29.55 "Hg (Jul 27, 5:00 PM)
Average68 °F62%29.85 "Hg
* Reported Jul 15 7:00 PM — Jul 30 7:00 PM, Oranienburg, Weather by CustomWeather, © 2015

Note: Actual official high and low records may vary slightly from our data, if they occured in-between our weather recording intervals... More about our weather records

Advertising

Oranienburg weather history for previous 24 hours

 ConditionsComfort  
Time TempWeatherWind HumidityBarometerVisibility
7:00 PM
Thu, Jul 30
65 °FScattered clouds.7 mph49%29.88 "Hg31 mi
6:00 PM65 °FOvercast.6 mph48%29.88 "Hg31 mi
5:00 PM66 °FOvercast.9 mph45%29.87 "Hg31 mi
4:00 PM66 °FOvercast.13 mph46%29.86 "Hg28 mi
3:00 PM66 °FPartly sunny.10 mph45%29.85 "Hg28 mi
2:00 PM65 °FPartly sunny.12 mph43%29.84 "Hg28 mi
1:00 PM65 °FPartly sunny.13 mph49%29.83 "Hg28 mi
12:00 PM62 °FOvercast.12 mph57%29.83 "Hg28 mi
10:00 AM59 °FOvercast.10 mph68%29.80 "Hg28 mi
9:00 AM58 °FOvercast.10 mph69%29.79 "Hg25 mi
8:00 AM57 °FOvercast.12 mph69%29.78 "Hg28 mi
7:00 AM57 °FPartly sunny.9 mph70%29.76 "Hg28 mi
5:00 AM58 °FOvercast.10 mph65%29.75 "Hg28 mi
4:00 AM59 °FOvercast.12 mph65%29.75 "Hg28 mi
3:00 AM59 °FOvercast.8 mph66%29.73 "Hg28 mi
2:00 AM59 °FOvercast.N/A65%29.73 "Hg28 mi
1:00 AM58 °FPassing clouds.9 mph63%29.73 "Hg28 mi
12:00 AM59 °FPassing clouds.8 mph61%29.73 "Hg28 mi
11:00 PM
Wed, Jul 29
57 °FPassing clouds.5 mph66%29.73 "Hg28 mi
10:00 PM59 °FPassing clouds.6 mph57%29.74 "Hg28 mi
9:00 PM60 °FPassing clouds.6 mph58%29.72 "Hg31 mi
8:00 PM62 °FScattered clouds.8 mph50%29.70 "Hg31 mi
Weather by CustomWeather, © 2015

See weather overviewHow to use our weather pages